TimeAKDT,TemperatureF,Dew PointF,Humidity,Sea Level PressureIn,VisibilityMPH,Wind Direction,Wind SpeedMPH,Gust SpeedMPH,PrecipitationIn,Events,Conditions,WindDirDegrees,DateUTC
12:53 AM,46.0,42.1,86,30.16,10.0,Calm,Calm,-,N/A,,Clear,0,2013-10-17 08:53:00
1:53 AM,46.0,41.0,83,30.14,10.0,NW,3.5,-,N/A,,Partly Cloudy,310,2013-10-17 09:53:00
2:53 AM,46.9,39.9,77,30.12,10.0,Calm,Calm,-,N/A,,Clear,0,2013-10-17 10:53:00
3:53 AM,46.0,41.0,83,30.10,10.0,NW,9.2,-,N/A,,Partly Cloudy,310,2013-10-17 11:53:00
4:53 AM,46.0,41.0,83,30.09,10.0,Calm,Calm,-,N/A,,Overcast,0,2013-10-17 12:53:00
5:53 AM,45.0,41.0,86,30.05,10.0,Calm,Calm,-,0.00,Rain,Light Rain,0,2013-10-17 13:53:00
6:53 AM,44.1,41.0,89,30.04,10.0,NNW,3.5,-,0.02,Rain,Light Rain,340,2013-10-17 14:53:00
7:53 AM,44.1,41.0,89,30.04,9.0,East,3.5,-,0.01,Rain,Light Rain,90,2013-10-17 15:53:00
8:53 AM,45.0,42.1,90,30.04,8.0,Calm,Calm,-,0.04,Rain,Light Rain,0,2013-10-17 16:53:00
9:53 AM,46.0,42.1,86,30.02,10.0,SSE,6.9,-,0.02,,Overcast,160,2013-10-17 17:53:00
10:53 AM,51.1,37.9,61,30.01,10.0,East,3.5,-,N/A,,Clear,90,2013-10-17 18:53:00
11:53 AM,52.0,37.0,57,29.99,10.0,Variable,3.5,-,N/A,,Clear,0,2013-10-17 19:53:00
12:53 PM,51.1,39.9,66,29.98,10.0,WSW,5.8,-,N/A,,Clear,250,2013-10-17 20:53:00
1:53 PM,52.0,41.0,66,29.97,10.0,Calm,Calm,-,N/A,,Clear,0,2013-10-17 21:53:00
2:53 PM,52.0,41.0,66,29.95,10.0,Variable,3.5,-,N/A,,Clear,0,2013-10-17 22:53:00
3:53 PM,51.1,41.0,68,29.93,10.0,WNW,3.5,-,N/A,,Overcast,290,2013-10-17 23:53:00
4:53 PM,51.1,39.9,66,29.91,10.0,NW,8.1,-,0.00,,Overcast,310,2013-10-18 00:53:00
5:53 PM,54.0,35.1,49,29.89,10.0,SE,6.9,-,N/A,,Overcast,130,2013-10-18 01:53:00
6:53 PM,50.0,43.0,77,29.89,10.0,Calm,Calm,-,0.00,Rain,Light Rain,0,2013-10-18 02:53:00
7:53 PM,48.9,44.1,83,29.87,10.0,WNW,5.8,-,0.00,,Overcast,290,2013-10-18 03:53:00
8:53 PM,48.0,44.1,86,29.86,10.0,NW,10.4,-,0.01,Rain,Light Rain,310,2013-10-18 04:53:00
9:53 PM,48.0,43.0,83,29.83,10.0,NNW,5.8,-,0.00,,Overcast,340,2013-10-18 05:53:00
10:53 PM,46.9,42.1,83,29.81,10.0,NNW,10.4,-,0.00,Rain,Light Rain,330,2013-10-18 06:53:00
11:53 PM,46.9,42.1,83,29.80,10.0,NNW,10.4,-,0.00,,Overcast,330,2013-10-18 07:53:00